Terug naar catalogus

STARLINK-3762

ActiefCommunicatieVLEO
NORAD 52374·PAYLOAD·🇺🇸 United States

Gelanceerd Apr 29, 2022 vanaf Cape Canaveral Space Force Station

Loading…

Volgende Passages (komende 24 uur)

TLE

VersSource: CelesTrak SupGP

Epoch: Sep 15, 2026, 02:30 UTC

1 52374C 22045AV  26258.10465278 -.00030067  00000+0 -88844-3 0  2580
2 52374  53.1590  44.6958 0001262  84.5929 199.7231 15.34401868    13

Volg STARLINK-3762 in realtime met AllMySat

Download on the App Store